Weather History for Reno, NV

Change the Weather History Date:

Tuesday, February 5, 2013

  Actual Average Record
Temperature  
Mean Temperature 46 °F 38 °F  
Max Temperature 62 °F 49 °F 69 °F (1995)
Min Temperature 30 °F 27 °F -10 °F (1989)
Degree Days  
Heating Degree Days 19 27  
Month to date heating degree days 112 137  
Since 1 July heating degree days 2859 3074  
Cooling Degree Days 0 0  
Month to date cooling degree days 0 0  
Year to date cooling degree days 0 0  
Moisture  
Dew Point 21 °F    
Average Humidity 47    
Maximum Humidity 78    
Minimum Humidity 15    
Precipitation  
Precipitation 0.00 in 0.03 in 1.01 in (1901)
Month to date precipitation 0.00 0.16  
Year to date precipitation 0.12 1.19  
Snow  
Snow 0.00 in 0.20 in 10.10 in (1901)
Month to date snowfall 0.0 0.7  
Since 1 July snowfall 9.3 14.7  
Snow Depth 0.00 in    
Sea Level Pressure  
Sea Level Pressure 29.97 in    
Wind  
Wind Speed 7 mph (NW)    
Max Wind Speed 24 mph    
Max Gust Speed 29 mph    
Visibility 10 miles    
Events      
T = Trace of Precipitation, MM = Missing Value Source: NWS Daily Summary

Daily Weather History Graph

Daily Weather History Graph

Search for Another Location

Airport:

Trip Planner

Search our weather history database for the weather conditions in past years. The results will help you decide how hot, cold, wet, or windy it might be!

Date:

Astronomy

Feb. 05, 2013 Rise Set
Actual Time 7:02 AM PST 5:24 PM PST
Civil Twilight 6:34 AM PST 5:52 PM PST
Nautical Twilight 6:02 AM PST 6:24 PM PST
Astronomical Twilight 5:30 AM PST 6:55 PM PST
Moon 2:49 AM PST (2/5) 12:47 PM PST (2/5)
Length of Visible Light 11h 18m
Length of Day
10h 22m
Waning Crescent, 25% of the Moon is Illuminated
Feb 5
Waning Crescent
Feb 9
New
Feb 17
First Quarter
Feb 25
Full
Mar 4
Last Quarter

Hourly Weather History & Observations

Time (PST) Temp. Windchill Dew Point Humidity Pressure Visibility Wind Dir Wind Speed Gust Speed Precip Events Conditions
12:55 AM 37.9 °F - 27.0 °F 65% 30.02 in 10.0 mi Calm Calm - N/A   Scattered Clouds
1:55 AM 37.9 °F - 27.0 °F 65% 30.01 in 10.0 mi Calm Calm - N/A   Scattered Clouds
2:55 AM 35.1 °F - 26.1 °F 70% 30.01 in 10.0 mi Calm Calm - N/A   Scattered Clouds
3:55 AM 35.1 °F - 26.1 °F 70% 30.00 in 10.0 mi Calm Calm - N/A   Clear
4:55 AM 34.0 °F - 26.1 °F 73% 30.00 in 10.0 mi Calm Calm - N/A   Scattered Clouds
5:55 AM 32.0 °F - 25.0 °F 75% 30.00 in 10.0 mi Calm Calm - N/A   Scattered Clouds
6:55 AM 30.9 °F 27.5 °F 24.1 °F 76% 30.01 in 10.0 mi NE 3.5 mph - N/A   Mostly Cloudy
7:55 AM 30.9 °F 26.2 °F 25.0 °F 79% 30.03 in 10.0 mi SE 4.6 mph - N/A   Mostly Cloudy
8:55 AM 37.0 °F - 27.0 °F 67% 30.01 in 10.0 mi Calm Calm - N/A   Mostly Cloudy
9:55 AM 43.0 °F 41.3 °F 27.0 °F 53% 30.00 in 10.0 mi East 3.5 mph - N/A   Mostly Cloudy
10:55 AM 50.0 °F - 23.0 °F 35% 29.96 in 10.0 mi North 4.6 mph - N/A   Mostly Cloudy
11:55 AM 57.0 °F - 14.0 °F 18% 29.92 in 10.0 mi Variable 4.6 mph - N/A   Mostly Cloudy
12:55 PM 61.0 °F - 12.9 °F 15% 29.88 in 10.0 mi SSW 15.0 mph 21.9 mph N/A   Mostly Cloudy
1:55 PM 60.1 °F - 14.0 °F 16% 29.86 in 10.0 mi WNW 13.8 mph 19.6 mph N/A   Mostly Cloudy
2:55 PM 59.0 °F - 15.1 °F 18% 29.86 in 10.0 mi South 23.0 mph 27.6 mph N/A   Mostly Cloudy
3:55 PM 55.9 °F - 17.1 °F 22% 29.86 in 10.0 mi South 20.7 mph - N/A   Mostly Cloudy
4:55 PM 54.0 °F - 17.1 °F 23% 29.88 in 10.0 mi NNW 5.8 mph 21.9 mph N/A   Mostly Cloudy
5:55 PM 48.9 °F - 18.0 °F 29% 29.92 in 10.0 mi WNW 15.0 mph 18.4 mph N/A   Scattered Clouds
6:55 PM 48.0 °F - 19.9 °F 33% 29.95 in 10.0 mi West 15.0 mph 23.0 mph N/A   Scattered Clouds
7:55 PM 46.0 °F 40.6 °F 18.0 °F 33% 29.98 in 10.0 mi West 11.5 mph 20.7 mph N/A   Partly Cloudy
8:55 PM 43.0 °F 38.2 °F 18.0 °F 37% 30.01 in 10.0 mi North 8.1 mph - N/A   Clear
9:55 PM 42.1 °F 37.1 °F 19.0 °F 40% 30.01 in 10.0 mi WNW 8.1 mph - N/A   Clear
10:55 PM 37.9 °F 29.6 °F 21.9 °F 53% 30.03 in 10.0 mi NNE 13.8 mph 18.4 mph N/A   Clear
11:55 PM 36.0 °F 29.6 °F 23.0 °F 59% 30.04 in 10.0 mi East 8.1 mph - N/A   Clear